Weather History for La Crosse, WI

Change the Weather History Date:

Wednesday, August 13, 2014

  Actual Average Record
Temperature  
Mean Temperature 72 °F 72 °F  
Max Temperature 85 °F 82 °F 95 °F (1978)
Min Temperature 59 °F 62 °F 48 °F (1964)
Degree Days  
Heating Degree Days 0 0  
Month to date heating degree days 0 0  
Since 1 July heating degree days 3 5  
Cooling Degree Days 7 7  
Month to date cooling degree days 101 102  
Year to date cooling degree days 580 589  
Growing Degree Days 22 (Base 50)    
Moisture  
Dew Point 57 °F    
Average Humidity 64    
Maximum Humidity 87    
Minimum Humidity 40    
Precipitation  
Precipitation 0.00 in 0.14 in 1.84 in (2010)
Month to date precipitation 0.68 1.86  
Year to date precipitation 25.54 21.53  
Snow  
Snow 0.00 in 0.00 in 0.00 in (2002)
Month to date snowfall 0.0 0.0  
Since 1 July snowfall 0.0 0.0  
Snow Depth 0.00 in    
Sea Level Pressure  
Sea Level Pressure 30.01 in    
Wind  
Wind Speed 6 mph (NE)    
Max Wind Speed 14 mph    
Max Gust Speed 20 mph    
Visibility 10 miles    
Events      
T = Trace of Precipitation, MM = Missing Value Source: NWS Daily Summary

Daily Weather History Graph

Daily Weather History Graph

Search for Another Location

Airport:

Trip Planner

Search our weather history database for the weather conditions in past years. The results will help you decide how hot, cold, wet, or windy it might be!

Date:

Astronomy

Aug. 13, 2014 Rise Set
Actual Time 6:06 AM CDT 8:12 PM CDT
Civil Twilight 5:35 AM CDT 8:43 PM CDT
Nautical Twilight 4:56 AM CDT 9:21 PM CDT
Astronomical Twilight 4:14 AM CDT 10:04 PM CDT
Moon 9:47 PM CDT (8/13) 9:44 AM CDT (8/13)
Length of Visible Light 15h 07m
Length of Day
14h 05m
Waning Gibbous, 87% of the Moon is Illuminated
Aug 13
Waning Gibbous
Aug 17
Last Quarter
Aug 25
New
Sep 2
First Quarter
Sep 8
Full

Hourly Weather History & Observations

Time (CDT) Temp. Heat Index Dew Point Humidity Pressure Visibility Wind Dir Wind Speed Gust Speed Precip Events Conditions
12:53 AM 61.0 °F - 55.0 °F 81% 29.99 in 10.0 mi SSE 3.5 mph - N/A   Clear
1:53 AM 60.1 °F - 55.0 °F 83% 29.99 in 10.0 mi SSE 3.5 mph - N/A   Clear
2:53 AM 60.1 °F - 55.0 °F 83% 29.99 in 10.0 mi SSE 4.6 mph - N/A   Clear
3:53 AM 59.0 °F - 55.0 °F 87% 29.99 in 10.0 mi SSE 5.8 mph - N/A   Scattered Clouds
4:53 AM 60.1 °F - 55.0 °F 83% 29.99 in 10.0 mi SSE 6.9 mph - N/A   Mostly Cloudy
5:53 AM 60.1 °F - 55.0 °F 83% 30.00 in 10.0 mi SSE 3.5 mph - N/A   Overcast
8:53 AM 69.1 °F - 57.9 °F 68% 30.04 in 10.0 mi Calm Calm - N/A   Clear
10:53 AM 75.0 °F - 60.1 °F 60% 30.04 in 10.0 mi NNW 8.1 mph - N/A   Clear
11:53 AM 79.0 °F - 61.0 °F 54% 30.03 in 10.0 mi NNW 11.5 mph - N/A   Partly Cloudy
12:53 PM 79.0 °F - 61.0 °F 54% 30.02 in 10.0 mi WNW 9.2 mph - N/A   Clear
1:53 PM 82.0 °F 82.7 °F 61.0 °F 49% 30.01 in 10.0 mi NW 10.4 mph - N/A   Scattered Clouds
2:53 PM 82.9 °F 83.3 °F 61.0 °F 47% 30.00 in 10.0 mi WNW 10.4 mph - N/A   Partly Cloudy
3:53 PM 84.0 °F 83.5 °F 57.9 °F 41% 30.00 in 10.0 mi NW 11.5 mph - N/A   Partly Cloudy
4:53 PM 84.0 °F 83.5 °F 57.9 °F 41% 30.00 in 10.0 mi Variable 6.9 mph - N/A   Mostly Cloudy
5:53 PM 82.0 °F 82.0 °F 57.9 °F 44% 30.00 in 10.0 mi NNE 9.2 mph - N/A   Partly Cloudy
6:53 PM 79.0 °F - 54.0 °F 42% 30.01 in 10.0 mi NNE 9.2 mph - N/A   Clear
7:53 PM 75.0 °F - 54.0 °F 48% 30.01 in 10.0 mi NNE 6.9 mph - N/A   Clear
8:53 PM 70.0 °F - 55.0 °F 59% 30.03 in 10.0 mi NNE 4.6 mph - N/A   Clear
9:53 PM 68.0 °F - 54.0 °F 61% 30.04 in 10.0 mi Calm Calm - N/A   Clear
11:53 PM 64.9 °F - 51.1 °F 61% 30.07 in 10.0 mi ESE 4.6 mph - N/A   Clear